Theta_e
324 325 326 324 323 322 321 321 322 321 321 321 322 322 321 321 320 320 320 321 320 320 320 320 322 324 326 326 323 317 324 331 338 346 347 347 345 345 343 343 343 341 340 340
322 323 321 321 320 321 321 322 322 321 321 321 320 321 321 320 320 320 319 319 319 319 320 320 320 323 326 326 326 325 317 325 337 344 346 345 343 343 342 339 341 340 339 340
320 319 320 320 321 322 322 322 321 322 321 320 321 321 321 319 320 318 316 315 315 317 318 319 320 322 323 325 326 326 324 316 331 342 345 344 343 343 343 342 340 339 339 339
319 318 318 319 319 319 321 320 321 321 322 322 319 321 320 319 320 316 312 311 311 312 315 317 319 319 321 322 325 326 325 316 319 336 342 343 341 340 339 339 340 340 339 338
318 317 317 319 318 317 318 314 317 318 320 320 319 320 319 318 320 314 309 309 308 309 310 311 315 317 318 321 323 325 330 326 322 331 339 342 341 340 339 339 339 339 339 338
315 310 310 313 311 312 313 313 315 316 317 319 318 318 318 319 319 311 308 307 306 306 307 308 309 312 316 318 322 323 324 334 333 334 337 338 338 341 340 338 338 337 337 337
313 311 307 303 308 309 309 313 317 318 319 320 317 317 317 316 309 306 306 305 304 304 304 305 307 309 311 315 319 322 323 326 332 336 337 338 338 340 338 338 337 337 335 335
313 314 308 304 306 310 311 312 317 321 319 319 316 318 319 310 304 304 303 303 302 302 302 303 304 305 309 312 316 320 322 322 325 331 337 337 337 336 337 335 336 336 334 333
313 313 303 301 301 303 309 309 308 311 312 315 316 315 314 309 305 305 303 301 300 301 302 302 302 303 305 309 312 317 321 323 323 326 331 333 332 331 329 330 327 330 332 332
309 309 306 303 301 301 302 303 306 308 314 318 314 313 313 314 308 302 299 300 301 301 301 302 301 301 303 307 310 315 320 324 323 323 326 328 329 329 326 324 321 326 326 328
303 305 308 301 303 305 302 303 303 306 311 315 315 311 308 306 300 299 300 301 301 301 301 301 301 301 301 306 310 312 316 324 325 323 324 326 328 328 324 323 324 326 327 327
304 303 307 304 300 300 300 302 303 311 311 308 307 308 306 302 299 300 301 302 302 302 302 302 301 301 301 303 307 311 315 322 324 325 327 326 327 325 325 323 322 322 326 328
303 304 307 307 303 300 302 303 303 306 304 305 306 305 301 298 300 301 302 303 304 305 305 304 303 303 301 302 305 310 313 316 324 323 324 325 324 324 324 323 324 325 325 325
302 303 307 310 308 300 301 302 300 300 302 302 302 300 298 299 301 303 304 305 305 305 306 306 305 303 302 301 305 310 312 315 322 324 323 324 324 323 322 323 324 323 322 322
304 305 304 304 303 299 299 299 300 300 300 299 297 297 299 300 302 303 304 305 305 306 305 306 306 303 302 301 305 311 312 315 320 322 321 321 320 320 319 320 321 319 320 320
303 305 301 301 299 298 299 298 297 298 298 298 298 298 299 302 303 303 303 304 304 303 305 306 306 303 303 303 306 311 312 314 317 321 320 317 317 318 318 317 318 318 318 318
303 301 299 297 296 297 297 298 298 298 298 299 299 299 301 303 303 303 303 303 302 302 304 306 305 305 303 305 311 311 311 313 313 320 317 316 316 316 317 317 316 317 317 318
301 300 297 297 297 297 296 297 298 298 298 298 299 299 302 302 302 302 303 302 302 302 302 307 306 306 308 309 310 311 312 313 313 318 318 317 318 317 316 315 316 316 316 316
296 298 299 300 298 296 297 298 297 297 298 300 300 301 301 301 302 302 301 302 302 301 301 304 306 307 305 306 307 308 312 313 314 316 317 317 317 315 315 315 315 315 315 314
295 296 298 299 299 295 296 300 301 301 299 301 301 301 300 301 302 302 300 302 302 300 300 301 306 305 302 302 305 306 312 313 314 316 317 316 315 315 315 315 314 313 312 311
297 297 298 298 299 297 296 299 300 297 299 300 299 300 299 300 300 301 300 301 300 299 299 303 303 303 303 302 303 304 310 312 312 316 316 315 314 314 314 313 312 310 309 308
298 298 298 299 300 297 298 298 298 299 300 299 299 299 299 300 301 300 300 300 300 300 299 302 302 302 302 302 303 304 305 310 312 315 315 314 313 312 312 310 308 308 307 305
298 299 300 300 298 297 298 298 299 300 300 299 299 299 300 300 300 301 300 299 300 299 300 301 300 301 300 300 302 304 305 308 313 314 313 312 311 310 310 308 306 305 305 305
297 295 296 295 297 296 297 298 299 299 299 299 298 298 299 300 301 301 299 299 299 299 300 299 300 301 301 301 304 308 305 307 313 313 312 311 310 308 307 306 306 306 305 305
296 295 296 296 296 296 296 296 297 297 298 297 298 298 300 302 302 301 299 299 298 298 299 299 300 301 301 301 304 310 306 313 313 312 311 310 309 308 307 307 307 308 308 307
294 296 296 296 297 296 296 297 297 296 296 297 297 300 302 300 299 299 300 298 299 298 299 299 299 300 301 300 306 311 313 313 312 311 310 309 308 308 307 305 305 305 306 305
Wind_Speed
3 8 10 11 11 13 13 16 20 18 15 16 16 16 15 15 14 7 3 7 11 13 13 17 19 19 19 16 15 13 17 23 23 26 25 24 23 20 18 16 14 14 14 14
5 14 13 8 11 13 15 17 19 17 8 6 16 18 17 15 2 4 5 8 10 13 14 17 22 22 21 21 18 15 16 20 24 26 26 25 24 20 19 16 15 16 15 15
13 5 3 4 6 10 14 16 18 18 16 15 16 18 6 9 10 6 8 9 12 14 14 15 19 22 23 24 24 20 17 19 24 26 22 19 18 15 16 17 17 17 17 16
8 2 9 12 14 12 16 11 15 15 11 12 2 10 12 10 9 6 8 10 14 15 16 15 17 22 24 25 24 23 16 14 20 24 24 25 25 24 23 23 22 20 18 17
2 4 7 10 12 9 13 3 10 13 14 15 20 8 15 6 14 4 9 13 12 13 14 16 18 21 23 24 26 25 20 7 12 20 25 24 24 22 20 22 21 19 18 17
15 1 4 12 6 10 7 10 13 12 12 15 22 18 15 11 3 4 7 10 13 14 14 15 20 22 23 25 26 32 30 14 5 14 21 23 21 22 20 23 24 21 18 17
7 13 3 2 8 8 9 12 9 10 10 15 6 9 13 8 6 6 6 9 12 14 17 17 18 20 25 28 28 29 29 20 11 8 16 19 18 18 21 24 28 24 20 18
13 18 6 5 6 8 10 14 12 12 13 13 2 7 0 10 8 5 5 9 12 16 16 18 19 21 22 24 25 26 34 35 25 16 12 13 14 15 21 16 15 23 20 18
13 14 3 1 2 3 4 10 6 10 9 7 10 7 6 8 4 2 8 11 14 16 15 16 24 24 25 24 26 28 25 21 19 14 9 10 16 20 17 19 2 10 12 15
8 14 3 2 3 4 7 3 5 4 6 6 9 14 7 8 2 10 16 17 16 15 16 16 17 24 23 21 19 21 21 16 14 8 5 14 19 22 22 25 29 16 12 15
5 5 5 1 6 8 5 6 4 3 2 4 4 4 5 7 5 15 18 18 18 16 15 16 18 22 21 19 22 21 19 18 13 7 6 13 19 22 22 24 21 12 12 16
4 4 11 11 0 3 3 5 4 4 5 3 3 7 4 5 16 19 21 21 21 19 17 15 17 21 22 17 16 15 16 14 8 7 4 8 12 14 27 27 26 18 13 15
2 6 6 5 7 3 6 7 6 7 5 12 7 4 2 14 18 19 21 21 20 21 21 18 15 16 18 17 16 16 14 14 10 1 2 4 7 13 18 20 22 24 20 17
2 7 11 10 2 1 3 7 7 9 6 6 11 15 16 16 18 19 21 20 19 20 20 18 15 14 16 16 15 15 15 14 10 8 3 4 7 10 15 18 22 21 18 18
5 7 10 14 13 10 11 9 12 12 11 7 10 6 13 15 16 18 19 18 20 23 24 21 16 13 15 16 14 13 13 13 9 9 9 8 8 10 15 23 23 19 18 18
6 3 6 11 7 10 13 13 13 15 15 12 14 16 13 9 14 16 16 17 19 21 21 20 14 11 14 15 13 12 13 11 14 10 10 11 12 16 17 19 21 17 16 16
6 5 5 7 2 6 10 13 15 12 8 12 10 6 10 11 13 15 15 16 16 18 20 14 9 9 13 14 12 15 16 11 16 12 12 18 20 18 16 16 16 16 15 13
7 9 2 3 3 5 4 2 3 10 6 12 13 9 8 11 13 11 12 13 11 18 17 13 9 10 14 14 15 17 14 9 16 17 19 17 18 17 15 14 15 14 15 16
9 8 3 3 6 6 3 4 6 10 8 7 8 5 8 10 12 5 8 13 11 6 15 14 13 11 15 18 19 20 9 8 12 16 21 20 18 19 18 19 18 19 20 21
4 4 5 3 3 3 5 7 3 3 10 10 4 6 9 11 9 8 15 14 14 14 12 17 14 14 20 21 18 16 13 9 7 19 18 20 20 23 22 24 24 24 26 27
6 3 9 7 4 6 5 9 3 4 2 4 2 5 8 8 10 14 15 13 13 15 12 9 11 17 21 24 20 16 15 14 5 20 24 21 19 25 26 28 28 29 29 29
10 9 5 4 4 7 10 7 5 3 3 2 4 5 8 10 13 13 11 10 10 12 12 9 16 21 26 26 21 20 16 14 10 24 24 24 24 26 30 31 29 31 32 30
7 5 4 8 5 1 12 2 6 3 3 2 4 6 7 10 13 12 12 11 10 12 10 14 17 23 30 29 23 21 21 15 15 26 24 27 28 29 31 32 30 26 28 28
6 5 3 4 8 12 8 8 8 9 8 5 5 9 9 10 13 13 11 10 10 12 10 17 19 23 27 32 30 23 21 17 28 27 27 28 29 27 27 28 29 28 26 26
2 10 8 6 8 5 10 10 8 10 7 4 7 8 8 10 11 9 11 10 11 11 11 18 19 26 27 38 36 12 24 27 28 29 27 27 28 27 26 25 25 24 23 24
6 6 7 4 6 3 2 6 2 4 7 6 6 6 8 7 8 9 9 10 11 10 12 17 22 25 33 38 34 22 31 34 30 28 26 27 28 26 27 27 24 17 23 23
Wind_Direction
205 240 244 265 255 280 275 272 275 281 288 277 278 282 283 277 279 302 350 14 2 357 353 359 356 349 341 327 309 278 245 231 222 214 207 207 209 209 209 211 206 196 195 185
234 256 276 276 270 252 258 268 274 285 281 263 283 288 293 279 130 92 36 24 10 359 357 1 360 356 351 339 327 307 263 240 225 217 213 210 207 203 203 216 200 191 189 185
257 307 109 196 241 247 253 264 276 281 289 277 275 280 193 109 129 92 47 26 19 6 357 359 359 0 356 348 337 322 290 247 226 218 217 206 183 176 181 191 190 192 193 188
267 300 257 266 263 263 270 261 259 270 280 276 199 288 271 241 159 68 42 28 20 5 358 360 357 356 360 355 347 338 316 259 230 216 211 198 194 188 198 187 184 188 192 191
329 249 248 250 256 220 264 259 263 268 262 274 259 250 287 172 185 64 38 34 25 12 4 1 357 352 352 358 360 355 343 291 228 215 213 215 221 220 191 176 180 181 186 190
263 299 243 266 273 242 301 270 259 262 262 255 263 257 259 275 115 104 44 32 19 12 6 1 2 360 351 353 6 8 352 353 244 212 213 215 222 221 188 174 170 172 174 177
235 237 204 221 265 228 234 252 264 248 223 254 283 284 249 128 103 83 40 18 4 357 356 354 356 0 357 350 358 17 353 346 360 232 231 213 211 204 201 184 168 168 171 174
276 284 195 149 247 284 244 252 243 262 261 277 84 248 154 119 111 76 20 358 353 350 350 344 344 350 358 349 351 10 1 349 360 312 246 217 200 188 175 162 178 165 167 171
298 268 118 215 272 262 216 234 305 278 264 275 253 249 167 154 145 348 353 347 346 344 345 340 333 341 348 353 352 359 0 346 317 292 251 203 179 165 148 141 22 51 149 166
294 283 214 163 250 200 252 2 229 211 248 241 252 264 274 169 317 341 341 341 342 338 338 337 334 331 337 344 347 347 349 322 336 323 229 176 157 151 137 140 151 243 177 153
308 261 254 221 218 270 202 222 226 291 240 272 284 267 79 93 352 333 331 331 330 331 328 329 329 327 319 325 335 347 336 327 345 351 144 151 136 135 146 147 149 181 192 154
272 284 269 271 48 275 272 293 302 224 167 234 307 271 109 23 343 337 333 329 325 322 318 312 311 314 312 314 321 325 322 320 324 352 78 108 119 134 137 148 157 180 187 163
187 224 270 263 209 187 239 256 238 220 222 234 243 235 119 339 338 332 326 324 324 323 319 316 306 301 303 305 312 316 315 326 286 205 298 172 167 162 154 158 163 170 168 161
32 244 230 264 334 10 208 200 203 214 219 246 236 290 316 329 325 324 323 323 319 321 324 318 308 295 298 297 301 307 306 310 279 225 178 222 179 168 158 155 162 157 158 151
199 237 230 253 256 258 266 240 205 216 250 254 287 285 298 307 312 315 327 328 332 335 325 317 307 294 302 293 294 297 296 315 290 237 182 211 182 160 152 146 146 154 151 155
199 250 246 265 252 247 255 249 239 229 243 251 271 277 274 301 313 325 341 341 342 330 323 307 303 293 297 293 294 298 299 293 314 214 186 182 169 151 142 138 139 143 146 158
196 225 225 258 236 266 256 240 230 233 233 226 243 302 327 318 324 334 344 343 352 326 334 331 315 298 298 294 300 300 299 292 315 210 174 161 144 134 134 142 144 146 144 154
239 222 223 288 234 239 63 89 314 220 230 224 258 286 310 314 325 327 359 337 336 349 341 346 345 335 330 318 324 307 291 289 317 202 167 165 159 150 144 142 137 139 147 149
232 215 200 243 237 316 164 189 202 211 257 230 236 276 304 330 318 334 342 322 332 351 319 322 339 356 346 339 329 326 287 272 292 176 167 168 162 149 149 147 143 141 137 133
145 235 229 181 253 255 109 162 183 213 270 153 207 284 328 329 316 331 332 318 319 332 285 303 311 325 338 336 326 322 288 260 280 174 176 166 162 154 152 148 141 136 133 125
170 194 214 211 255 274 219 152 164 246 69 133 295 322 321 314 314 314 312 315 328 333 332 328 330 324 326 328 324 308 286 252 257 179 176 159 156 156 151 147 146 137 127 122
177 174 177 191 223 255 148 149 215 66 140 255 300 315 310 313 317 329 331 335 337 343 349 355 326 332 328 324 312 294 275 268 259 177 161 149 154 149 147 145 139 136 130 121
209 209 178 204 215 42 187 233 223 198 244 267 288 317 312 308 322 321 321 329 334 347 349 345 336 328 326 319 304 276 258 251 203 161 148 144 148 146 149 142 135 129 131 128
209 178 222 185 209 230 226 237 243 232 248 275 296 307 302 313 314 312 319 334 331 339 340 341 332 330 320 317 308 287 230 233 166 154 146 145 140 140 142 140 140 138 138 135
148 161 203 249 263 243 241 235 264 259 241 249 294 295 309 319 312 312 314 335 331 337 341 341 326 321 317 322 315 254 198 175 157 144 144 140 139 139 136 138 142 145 148 146
184 176 199 223 181 224 109 144 86 195 223 255 283 304 345 332 321 324 338 349 353 347 344 334 335 326 328 333 333 161 165 156 146 141 142 140 137 135 129 122 113 125 141 143